contact:dominique.lefevre@mio.osupytheas.fr, maurice.libes@osupytheas.fr, didier.mallarino@osupytheas.fr
Project:EMSO http://www.emso-fr.org/EMSO-France
Depth: 2436.0 m
Title:EMSO Ligure Ouest : Data MII capteur CSTAR
DateTime,Latitude,Longitude,Instrument_Serial,Reference_Counts,Signal_Counts,Corrected_Signal_raw_counts,Calculated_Beam_c_inverse_meters,Internal_thermistor_counts
DateTime,Latitude,Longitude,Instrument_Serial,Reference_Counts,Signal_Counts,Corrected_Signal_raw_counts,Calculated_Beam_c_inverse_meters,Internal_thermistor_counts
2022-09-17T00:01:49,42.805,6.029,CST-1368DR,4582,5077,11795,01.122,551
2022-09-17T00:04:50,42.805,6.029,CST-1368DR,4582,5076,11793,01.123,551
2022-09-17T00:07:52,42.805,6.029,CST-1368DR,4582,5076,11794,01.123,551
2022-09-17T00:10:54,42.805,6.029,CST-1368DR,4582,5076,11792,01.123,551
2022-09-17T00:13:55,42.805,6.029,CST-1368DR,4582,5075,11790,01.124,551
2022-09-17T00:16:57,42.805,6.029,CST-1368DR,4582,5075,11790,01.124,551
2022-09-17T00:19:58,42.805,6.029,CST-1368DR,4582,5074,11789,01.125,551
2022-09-17T00:23:00,42.805,6.029,CST-1368DR,4582,5075,11791,01.124,551
2022-09-17T00:26:01,42.805,6.029,CST-1368DR,4582,5075,11790,01.124,551
2022-09-17T00:29:03,42.805,6.029,CST-1368DR,4582,5075,11790,01.124,551
2022-09-17T00:32:05,42.805,6.029,CST-1368DR,4582,5074,11787,01.125,551
2022-09-17T00:35:06,42.805,6.029,CST-1368DR,4582,5075,11791,01.124,551
2022-09-17T00:38:08,42.805,6.029,CST-1368DR,4582,5074,11787,01.125,551
2022-09-17T00:41:09,42.805,6.029,CST-1368DR,4582,5077,11795,01.122,551
2022-09-17T00:44:11,42.805,6.029,CST-1368DR,4582,5077,11795,01.122,551
2022-09-17T00:47:13,42.805,6.029,CST-1368DR,4582,5077,11795,01.122,551
2022-09-17T00:50:14,42.805,6.029,CST-1368DR,4582,5077,11795,01.122,551
2022-09-17T00:53:16,42.805,6.029,CST-1368DR,4582,5077,11794,01.123,551
2022-09-17T00:56:17,42.805,6.029,CST-1368DR,4582,5077,11795,01.122,551
2022-09-17T00:59:19,42.805,6.029,CST-1368DR,4582,5077,11796,01.122,551
2022-09-17T01:02:20,42.805,6.029,CST-1368DR,4582,5077,11796,01.122,551
2022-09-17T01:05:22,42.805,6.029,CST-1368DR,4582,5079,11800,01.121,551
2022-09-17T01:08:24,42.805,6.029,CST-1368DR,4582,5077,11795,01.122,551
2022-09-17T01:11:25,42.805,6.029,CST-1368DR,4582,5077,11795,01.122,551
2022-09-17T01:14:27,42.805,6.029,CST-1368DR,4582,5077,11795,01.122,551
2022-09-17T01:17:28,42.805,6.029,CST-1368DR,4582,5077,11796,01.122,551
2022-09-17T01:20:30,42.805,6.029,CST-1368DR,4582,5077,11796,01.122,551
2022-09-17T01:23:31,42.805,6.029,CST-1368DR,4582,5078,11797,01.122,551
2022-09-17T01:26:33,42.805,6.029,CST-1368DR,4582,5078,11797,01.122,551
2022-09-17T01:29:35,42.805,6.029,CST-1368DR,4581,5078,11799,01.121,551
2022-09-17T01:32:36,42.805,6.029,CST-1368DR,4581,5080,11805,01.119,551
2022-09-17T01:35:38,42.805,6.029,CST-1368DR,4582,5078,11798,01.121,551
2022-09-17T01:38:39,42.805,6.029,CST-1368DR,4581,5078,11801,01.120,551
2022-09-17T01:41:41,42.805,6.029,CST-1368DR,4582,5078,11798,01.121,551
2022-09-17T01:44:43,42.805,6.029,CST-1368DR,4582,5080,11802,01.120,551
2022-09-17T01:47:44,42.805,6.029,CST-1368DR,4582,5078,11798,01.121,551
2022-09-17T01:50:46,42.805,6.029,CST-1368DR,4582,5079,11800,01.121,551
2022-09-17T01:53:47,42.805,6.029,CST-1368DR,4582,5078,11798,01.121,551
2022-09-17T01:56:49,42.805,6.029,CST-1368DR,4582,5079,11801,01.120,551
2022-09-17T01:59:50,42.805,6.029,CST-1368DR,4582,5080,11801,01.120,551
2022-09-17T02:02:52,42.805,6.029,CST-1368DR,4582,5078,11797,01.122,551
2022-09-17T02:05:54,42.805,6.029,CST-1368DR,4582,5079,11799,01.121,551
2022-09-17T02:08:55,42.805,6.029,CST-1368DR,4582,5078,11798,01.121,551
2022-09-17T02:11:57,42.805,6.029,CST-1368DR,4581,5078,11801,01.120,551
2022-09-17T02:14:58,42.805,6.029,CST-1368DR,4582,5075,11791,01.124,551
2022-09-17T02:18:00,42.805,6.029,CST-1368DR,4581,5076,11796,01.122,551
2022-09-17T02:21:01,42.805,6.029,CST-1368DR,4582,5077,11795,01.122,551
2022-09-17T02:24:03,42.805,6.029,CST-1368DR,4581,5076,11796,01.122,551
2022-09-17T02:27:05,42.805,6.029,CST-1368DR,4581,5078,11800,01.121,551
2022-09-17T02:30:06,42.805,6.029,CST-1368DR,4581,5078,11801,01.120,551
2022-09-17T02:33:08,42.805,6.029,CST-1368DR,4581,5079,11801,01.120,551
2022-09-17T02:36:09,42.805,6.029,CST-1368DR,4581,5078,11800,01.121,551
2022-09-17T02:39:11,42.805,6.029,CST-1368DR,4581,5078,11800,01.121,551
2022-09-17T02:42:13,42.805,6.029,CST-1368DR,4581,5077,11798,01.121,551
2022-09-17T02:45:14,42.805,6.029,CST-1368DR,4581,5078,11800,01.121,551
2022-09-17T02:48:16,42.805,6.029,CST-1368DR,4581,5076,11795,01.122,551
2022-09-17T02:51:17,42.805,6.029,CST-1368DR,4581,5075,11793,01.123,551
2022-09-17T02:54:19,42.805,6.029,CST-1368DR,4581,5077,11798,01.121,551
2022-09-17T02:57:20,42.805,6.029,CST-1368DR,4581,5077,11798,01.121,551
2022-09-17T03:00:22,42.805,6.029,CST-1368DR,4581,5078,11799,01.121,551
2022-09-17T03:03:24,42.805,6.029,CST-1368DR,4581,5078,11800,01.121,551
2022-09-17T03:06:25,42.805,6.029,CST-1368DR,4581,5077,11798,01.121,551
2022-09-17T03:09:27,42.805,6.029,CST-1368DR,4581,5077,11797,01.122,551
2022-09-17T03:12:28,42.805,6.029,CST-1368DR,4581,5077,11798,01.121,551
2022-09-17T03:15:30,42.805,6.029,CST-1368DR,4581,5077,11798,01.121,551
2022-09-17T03:18:31,42.805,6.029,CST-1368DR,4581,5079,11803,01.120,551
2022-09-17T03:21:33,42.805,6.029,CST-1368DR,4581,5077,11798,01.121,551
2022-09-17T03:24:35,42.805,6.029,CST-1368DR,4581,5077,11798,01.121,551
2022-09-17T03:27:36,42.805,6.029,CST-1368DR,4581,5078,11799,01.121,551
2022-09-17T03:30:38,42.805,6.029,CST-1368DR,4581,5076,11796,01.122,551
2022-09-17T03:33:39,42.805,6.029,CST-1368DR,4581,5078,11799,01.121,551
2022-09-17T03:36:41,42.805,6.029,CST-1368DR,4581,5077,11797,01.122,551
2022-09-17T03:39:43,42.805,6.029,CST-1368DR,4581,5077,11798,01.121,551
2022-09-17T03:42:44,42.805,6.029,CST-1368DR,4581,5074,11790,01.124,551
2022-09-17T03:45:46,42.805,6.029,CST-1368DR,4581,5077,11798,01.121,551
2022-09-17T03:48:47,42.805,6.029,CST-1368DR,4581,5075,11793,01.123,551
2022-09-17T03:51:49,42.805,6.029,CST-1368DR,4581,5078,11799,01.121,551
2022-09-17T03:54:50,42.805,6.029,CST-1368DR,4581,5077,11798,01.121,551
2022-09-17T03:57:52,42.805,6.029,CST-1368DR,4581,5076,11795,01.122,551
2022-09-17T04:00:54,42.805,6.029,CST-1368DR,4581,5077,11797,01.122,551
2022-09-17T04:03:55,42.805,6.029,CST-1368DR,4581,5077,11798,01.121,551
2022-09-17T04:06:57,42.805,6.029,CST-1368DR,4581,5077,11798,01.121,551
2022-09-17T04:09:58,42.805,6.029,CST-1368DR,4581,5077,11798,01.121,551
2022-09-17T04:13:00,42.805,6.029,CST-1368DR,4581,5077,11798,01.121,551
2022-09-17T04:16:01,42.805,6.029,CST-1368DR,4581,5077,11797,01.122,551
2022-09-17T04:19:03,42.805,6.029,CST-1368DR,4581,5076,11795,01.122,551
2022-09-17T04:22:05,42.805,6.029,CST-1368DR,4581,5078,11800,01.121,551
2022-09-17T04:25:06,42.805,6.029,CST-1368DR,4581,5076,11796,01.122,551
2022-09-17T04:28:08,42.805,6.029,CST-1368DR,4581,5077,11798,01.121,551
2022-09-17T04:31:09,42.805,6.029,CST-1368DR,4581,5076,11796,01.122,551
2022-09-17T04:34:11,42.805,6.029,CST-1368DR,4581,5077,11798,01.121,551
2022-09-17T04:37:13,42.805,6.029,CST-1368DR,4580,5077,11801,01.120,551
2022-09-17T04:40:14,42.805,6.029,CST-1368DR,4580,5081,11809,01.118,551
2022-09-17T04:43:16,42.805,6.029,CST-1368DR,4580,5077,11799,01.121,551
2022-09-17T04:46:17,42.805,6.029,CST-1368DR,4580,5076,11799,01.121,551
2022-09-17T04:49:19,42.805,6.029,CST-1368DR,4580,5077,11800,01.121,551
2022-09-17T04:52:20,42.805,6.029,CST-1368DR,4580,5077,11800,01.121,551
2022-09-17T04:55:22,42.805,6.029,CST-1368DR,4580,5075,11795,01.122,551
2022-09-17T04:58:24,42.805,6.029,CST-1368DR,4580,5077,11800,01.121,551
2022-09-17T05:01:25,42.805,6.029,CST-1368DR,4580,5077,11801,01.120,551
2022-09-17T05:04:27,42.805,6.029,CST-1368DR,4580,5077,11799,01.121,551
2022-09-17T05:07:28,42.805,6.029,CST-1368DR,4580,5077,11801,01.120,551
2022-09-17T05:10:30,42.805,6.029,CST-1368DR,4580,5074,11793,01.123,551
2022-09-17T05:13:32,42.805,6.029,CST-1368DR,4580,5076,11799,01.121,551
2022-09-17T05:16:33,42.805,6.029,CST-1368DR,4580,5076,11799,01.121,551
2022-09-17T05:19:35,42.805,6.029,CST-1368DR,4580,5076,11797,01.122,551
2022-09-17T05:22:36,42.805,6.029,CST-1368DR,4580,5075,11795,01.122,551
2022-09-17T05:25:38,42.805,6.029,CST-1368DR,4580,5077,11799,01.121,551
2022-09-17T05:28:39,42.805,6.029,CST-1368DR,4580,5069,11781,01.127,551
2022-09-17T05:31:41,42.805,6.029,CST-1368DR,4580,5076,11798,01.121,551
2022-09-17T05:34:43,42.805,6.029,CST-1368DR,4580,5077,11800,01.121,551
2022-09-17T05:37:44,42.805,6.029,CST-1368DR,4580,5077,11800,01.121,551
2022-09-17T05:40:46,42.805,6.029,CST-1368DR,4580,5074,11793,01.123,551
2022-09-17T05:43:47,42.805,6.029,CST-1368DR,4580,5077,11800,01.121,551
2022-09-17T05:46:49,42.805,6.029,CST-1368DR,4580,5077,11801,01.120,551
2022-09-17T05:49:50,42.805,6.029,CST-1368DR,4580,5078,11803,01.120,551
2022-09-17T05:52:52,42.805,6.029,CST-1368DR,4580,5077,11800,01.121,550
2022-09-17T05:55:54,42.805,6.029,CST-1368DR,4580,5078,11803,01.120,551
2022-09-17T05:58:55,42.805,6.029,CST-1368DR,4580,5076,11797,01.122,551
2022-09-17T06:01:57,42.805,6.029,CST-1368DR,4580,5077,11801,01.120,551
2022-09-17T06:04:58,42.805,6.029,CST-1368DR,4580,5079,11805,01.119,551
2022-09-17T06:08:00,42.805,6.029,CST-1368DR,4580,5074,11793,01.123,551
2022-09-17T06:11:02,42.805,6.029,CST-1368DR,4580,5078,11803,01.120,551
2022-09-17T06:14:03,42.805,6.029,CST-1368DR,4580,5079,11805,01.119,551
2022-09-17T06:17:05,42.805,6.029,CST-1368DR,4580,5079,11805,01.119,551
2022-09-17T06:20:06,42.805,6.029,CST-1368DR,4580,5080,11807,01.118,551
2022-09-17T06:23:08,42.805,6.029,CST-1368DR,4580,5080,11807,01.118,551
2022-09-17T06:26:09,42.805,6.029,CST-1368DR,4580,5079,11806,01.119,551
2022-09-17T06:29:11,42.805,6.029,CST-1368DR,4580,5081,11810,01.117,551
2022-09-17T06:32:13,42.805,6.029,CST-1368DR,4580,5080,11806,01.119,551
2022-09-17T06:35:14,42.805,6.029,CST-1368DR,4580,5081,11808,01.118,551
2022-09-17T06:38:16,42.805,6.029,CST-1368DR,4580,5081,11808,01.118,551
2022-09-17T06:41:17,42.805,6.029,CST-1368DR,4580,5084,11815,01.116,551
2022-09-17T06:44:19,42.805,6.029,CST-1368DR,4580,5081,11810,01.117,551
2022-09-17T06:47:20,42.805,6.029,CST-1368DR,4580,5083,11813,01.116,551
2022-09-17T06:50:22,42.805,6.029,CST-1368DR,4580,5081,11810,01.117,551
2022-09-17T06:53:24,42.805,6.029,CST-1368DR,4581,5083,11812,01.117,551
2022-09-17T06:56:25,42.805,6.029,CST-1368DR,4581,5084,11814,01.116,551
2022-09-17T06:59:27,42.805,6.029,CST-1368DR,4581,5082,11808,01.118,551
2022-09-17T07:02:28,42.805,6.029,CST-1368DR,4581,5084,11814,01.116,551
2022-09-17T07:05:30,42.805,6.029,CST-1368DR,4581,5084,11814,01.116,551
2022-09-17T07:08:32,42.805,6.029,CST-1368DR,4581,5082,11810,01.117,551
2022-09-17T07:11:33,42.805,6.029,CST-1368DR,4581,5083,11812,01.117,551
2022-09-17T07:14:35,42.805,6.029,CST-1368DR,4581,5084,11814,01.116,551
2022-09-17T07:17:36,42.805,6.029,CST-1368DR,4581,5083,11812,01.117,551
2022-09-17T07:20:38,42.805,6.029,CST-1368DR,4581,5085,11816,01.115,550
2022-09-17T07:23:39,42.805,6.029,CST-1368DR,4581,5087,11820,01.114,551
2022-09-17T07:26:41,42.805,6.029,CST-1368DR,4581,5083,11811,01.117,551
2022-09-17T07:29:43,42.805,6.029,CST-1368DR,4581,5085,11815,01.116,551
2022-09-17T07:32:44,42.805,6.029,CST-1368DR,4581,5078,11799,01.121,551
2022-09-17T07:35:46,42.805,6.029,CST-1368DR,4581,5079,11801,01.120,551
2022-09-17T07:38:47,42.805,6.029,CST-1368DR,4581,5078,11800,01.121,551
2022-09-17T07:41:49,42.805,6.029,CST-1368DR,4581,5080,11805,01.119,551
2022-09-17T07:44:50,42.805,6.029,CST-1368DR,4581,5077,11798,01.121,551
2022-09-17T07:47:52,42.805,6.029,CST-1368DR,4581,5077,11797,01.122,551
2022-09-17T07:50:54,42.805,6.029,CST-1368DR,4581,5077,11798,01.121,551
2022-09-17T07:53:55,42.805,6.029,CST-1368DR,4581,5078,11800,01.121,551
2022-09-17T07:56:57,42.805,6.029,CST-1368DR,4581,5078,11800,01.121,551
2022-09-17T07:59:58,42.805,6.029,CST-1368DR,4581,5078,11800,01.121,551
2022-09-17T08:03:00,42.805,6.029,CST-1368DR,4581,5080,11805,01.119,551
2022-09-17T08:06:02,42.805,6.029,CST-1368DR,4581,5076,11795,01.122,551
2022-09-17T08:09:03,42.805,6.029,CST-1368DR,4581,5078,11801,01.120,551
2022-09-17T08:12:05,42.805,6.029,CST-1368DR,4581,5079,11801,01.120,551
2022-09-17T08:15:06,42.805,6.029,CST-1368DR,4581,5077,11798,01.121,551
2022-09-17T08:18:08,42.805,6.029,CST-1368DR,4581,5077,11797,01.122,551
2022-09-17T08:21:09,42.805,6.029,CST-1368DR,4581,5077,11798,01.121,551
2022-09-17T08:24:11,42.805,6.029,CST-1368DR,4581,5078,11799,01.121,551
2022-09-17T08:27:13,42.805,6.029,CST-1368DR,4581,5077,11798,01.121,551
2022-09-17T08:30:14,42.805,6.029,CST-1368DR,4581,5078,11799,01.121,551
2022-09-17T08:33:16,42.805,6.029,CST-1368DR,4581,5079,11803,01.120,551
2022-09-17T08:36:17,42.805,6.029,CST-1368DR,4581,5084,11814,01.116,551
2022-09-17T08:39:19,42.805,6.029,CST-1368DR,4581,5082,11809,01.118,551
2022-09-17T08:42:21,42.805,6.029,CST-1368DR,4581,5078,11800,01.121,551
2022-09-17T08:45:22,42.805,6.029,CST-1368DR,4581,5078,11801,01.120,551
2022-09-17T08:48:24,42.805,6.029,CST-1368DR,4581,5077,11798,01.121,551
2022-09-17T08:51:25,42.805,6.029,CST-1368DR,4581,5077,11798,01.121,551
2022-09-17T08:54:27,42.805,6.029,CST-1368DR,4581,5074,11790,01.124,551
2022-09-17T08:57:28,42.805,6.029,CST-1368DR,4581,5077,11798,01.121,551
2022-09-17T09:00:30,42.805,6.029,CST-1368DR,4581,5077,11798,01.121,551
2022-09-17T09:03:32,42.805,6.029,CST-1368DR,4581,5076,11794,01.123,551
2022-09-17T09:06:33,42.805,6.029,CST-1368DR,4581,5075,11793,01.123,551
2022-09-17T09:09:35,42.805,6.029,CST-1368DR,4581,5077,11797,01.122,551
2022-09-17T09:12:36,42.805,6.029,CST-1368DR,4581,5077,11797,01.122,551
2022-09-17T09:15:38,42.805,6.029,CST-1368DR,4581,5077,11797,01.122,551
2022-09-17T09:18:39,42.805,6.029,CST-1368DR,4581,5076,11794,01.123,551
2022-09-17T09:21:41,42.805,6.029,CST-1368DR,4581,5076,11794,01.123,551
2022-09-17T09:24:43,42.805,6.029,CST-1368DR,4581,5076,11796,01.122,551
2022-09-17T09:27:44,42.805,6.029,CST-1368DR,4581,5075,11792,01.123,551
2022-09-17T09:30:46,42.805,6.029,CST-1368DR,4581,5075,11793,01.123,551
2022-09-17T09:33:47,42.805,6.029,CST-1368DR,4581,5071,11785,01.126,551
2022-09-17T09:36:49,42.805,6.029,CST-1368DR,4581,5073,11789,01.125,551
2022-09-17T09:39:50,42.805,6.029,CST-1368DR,4581,5072,11786,01.126,551
2022-09-17T09:42:52,42.805,6.029,CST-1368DR,4581,5071,11783,01.127,551
2022-09-17T09:45:54,42.805,6.029,CST-1368DR,4581,5072,11786,01.126,551
2022-09-17T09:48:55,42.805,6.029,CST-1368DR,4581,5070,11782,01.127,551
2022-09-17T09:51:57,42.805,6.029,CST-1368DR,4581,5071,11784,01.126,551
2022-09-17T09:54:58,42.805,6.029,CST-1368DR,4581,5072,11785,01.126,551
2022-09-17T09:58:00,42.805,6.029,CST-1368DR,4581,5074,11791,01.124,551
2022-09-17T10:01:02,42.805,6.029,CST-1368DR,4581,5073,11787,01.125,551
2022-09-17T10:04:03,42.805,6.029,CST-1368DR,4581,5071,11783,01.127,551
2022-09-17T10:07:05,42.805,6.029,CST-1368DR,4581,5071,11785,01.126,551
2022-09-17T10:10:06,42.805,6.029,CST-1368DR,4581,5074,11791,01.124,551
2022-09-17T10:13:08,42.805,6.029,CST-1368DR,4581,5072,11787,01.125,551
2022-09-17T10:16:09,42.805,6.029,CST-1368DR,4581,5072,11787,01.125,551
2022-09-17T10:19:11,42.805,6.029,CST-1368DR,4581,5079,11803,01.120,551
2022-09-17T10:22:13,42.805,6.029,CST-1368DR,4581,5072,11786,01.126,551
2022-09-17T10:25:14,42.805,6.029,CST-1368DR,4581,5073,11789,01.125,551
2022-09-17T10:28:16,42.805,6.029,CST-1368DR,4581,5071,11785,01.126,551
2022-09-17T10:31:17,42.805,6.029,CST-1368DR,4581,5072,11786,01.126,551
2022-09-17T10:34:19,42.805,6.029,CST-1368DR,4581,5072,11787,01.125,551
2022-09-17T10:37:21,42.805,6.029,CST-1368DR,4581,5073,11787,01.125,551
2022-09-17T10:40:22,42.805,6.029,CST-1368DR,4581,5072,11786,01.126,551
2022-09-17T10:43:24,42.805,6.029,CST-1368DR,4581,5072,11786,01.126,551
2022-09-17T10:46:25,42.805,6.029,CST-1368DR,4581,5071,11783,01.127,551
2022-09-17T10:49:27,42.805,6.029,CST-1368DR,4581,5073,11788,01.125,551
2022-09-17T10:52:28,42.805,6.029,CST-1368DR,4581,5073,11787,01.125,551
2022-09-17T10:55:30,42.805,6.029,CST-1368DR,4581,5073,11788,01.125,551
2022-09-17T10:58:32,42.805,6.029,CST-1368DR,4581,5074,11790,01.124,551
2022-09-17T11:01:33,42.805,6.029,CST-1368DR,4581,5074,11790,01.124,551
2022-09-17T11:04:35,42.805,6.029,CST-1368DR,4581,5074,11791,01.124,551
2022-09-17T11:07:36,42.805,6.029,CST-1368DR,4581,5074,11790,01.124,551
2022-09-17T11:10:38,42.805,6.029,CST-1368DR,4581,5073,11788,01.125,551
2022-09-17T11:13:39,42.805,6.029,CST-1368DR,4581,5074,11790,01.124,551
2022-09-17T11:16:41,42.805,6.029,CST-1368DR,4581,5073,11789,01.125,551
2022-09-17T11:19:43,42.805,6.029,CST-1368DR,4581,5073,11788,01.125,551
2022-09-17T11:22:44,42.805,6.029,CST-1368DR,4581,5071,11783,01.127,551
2022-09-17T11:25:46,42.805,6.029,CST-1368DR,4581,5070,11781,01.127,551
2022-09-17T11:28:47,42.805,6.029,CST-1368DR,4581,5073,11789,01.125,551
2022-09-17T11:31:49,42.805,6.029,CST-1368DR,4581,5069,11780,01.128,551
2022-09-17T11:34:51,42.805,6.029,CST-1368DR,4581,5071,11783,01.127,551
2022-09-17T11:37:52,42.805,6.029,CST-1368DR,4581,5074,11790,01.124,551
2022-09-17T11:40:54,42.805,6.029,CST-1368DR,4581,5075,11793,01.123,551
2022-09-17T11:43:55,42.805,6.029,CST-1368DR,4581,5074,11790,01.124,551
2022-09-17T11:46:57,42.805,6.029,CST-1368DR,4581,5075,11792,01.123,551
2022-09-17T11:49:58,42.805,6.029,CST-1368DR,4581,5075,11792,01.123,551
2022-09-17T11:53:00,42.805,6.029,CST-1368DR,4581,5072,11787,01.125,551
2022-09-17T11:56:02,42.805,6.029,CST-1368DR,4581,5071,11784,01.126,551
2022-09-17T11:59:03,42.805,6.029,CST-1368DR,4581,5073,11787,01.125,551
2022-09-17T12:02:05,42.805,6.029,CST-1368DR,4581,5072,11787,01.125,551
2022-09-17T12:05:06,42.805,6.029,CST-1368DR,4581,5073,11788,01.125,551
2022-09-17T12:08:08,42.805,6.029,CST-1368DR,4581,5072,11785,01.126,551
2022-09-17T12:11:09,42.805,6.029,CST-1368DR,4581,5073,11787,01.125,551
2022-09-17T12:14:11,42.805,6.029,CST-1368DR,4581,5071,11785,01.126,551
2022-09-17T12:17:13,42.805,6.029,CST-1368DR,4581,5072,11787,01.125,551
2022-09-17T12:20:14,42.805,6.029,CST-1368DR,4581,5056,11748,01.138,551
2022-09-17T12:23:16,42.805,6.029,CST-1368DR,4581,5071,11783,01.127,551
2022-09-17T12:26:17,42.805,6.029,CST-1368DR,4581,5071,11783,01.127,551
2022-09-17T12:29:19,42.805,6.029,CST-1368DR,4581,5034,11697,01.156,551
2022-09-17T12:32:21,42.805,6.029,CST-1368DR,4581,5073,11787,01.125,551
2022-09-17T12:35:22,42.805,6.029,CST-1368DR,4581,5071,11784,01.126,551
2022-09-17T12:38:24,42.805,6.029,CST-1368DR,4581,5070,11782,01.127,551
2022-09-17T12:41:25,42.805,6.029,CST-1368DR,4581,5070,11781,01.127,551
2022-09-17T12:44:27,42.805,6.029,CST-1368DR,4581,5075,11793,01.123,551
2022-09-17T12:47:28,42.805,6.029,CST-1368DR,4581,5071,11783,01.127,551
2022-09-17T12:50:30,42.805,6.029,CST-1368DR,4581,5071,11783,01.127,551
2022-09-17T12:53:32,42.805,6.029,CST-1368DR,4581,5073,11789,01.125,551
2022-09-17T12:56:33,42.805,6.029,CST-1368DR,4581,5070,11782,01.127,551
2022-09-17T12:59:35,42.805,6.029,CST-1368DR,4581,5071,11783,01.127,551
2022-09-17T13:02:36,42.805,6.029,CST-1368DR,4581,5071,11783,01.127,551
2022-09-17T13:05:38,42.805,6.029,CST-1368DR,4581,5071,11784,01.126,551
2022-09-17T13:08:39,42.805,6.029,CST-1368DR,4581,5070,11782,01.127,551
2022-09-17T13:11:41,42.805,6.029,CST-1368DR,4581,5071,11783,01.127,551
2022-09-17T13:14:43,42.805,6.029,CST-1368DR,4581,5069,11780,01.128,551
2022-09-17T13:17:44,42.805,6.029,CST-1368DR,4581,5070,11781,01.127,551
2022-09-17T13:20:46,42.805,6.029,CST-1368DR,4581,5070,11781,01.127,551
2022-09-17T13:23:47,42.805,6.029,CST-1368DR,4581,5070,11782,01.127,551
2022-09-17T13:26:49,42.805,6.029,CST-1368DR,4581,5068,11776,01.129,551
2022-09-17T13:29:51,42.805,6.029,CST-1368DR,4581,5069,11780,01.128,551
2022-09-17T13:32:52,42.805,6.029,CST-1368DR,4581,5071,11784,01.126,551
2022-09-17T13:35:54,42.805,6.029,CST-1368DR,4581,5071,11784,01.126,551
2022-09-17T13:38:55,42.805,6.029,CST-1368DR,4581,5072,11787,01.125,551
2022-09-17T13:41:57,42.805,6.029,CST-1368DR,4581,5071,11783,01.127,551
2022-09-17T13:44:58,42.805,6.029,CST-1368DR,4581,5071,11783,01.127,551
2022-09-17T13:48:00,42.805,6.029,CST-1368DR,4581,5072,11785,01.126,551
2022-09-17T13:51:02,42.805,6.029,CST-1368DR,4581,5060,11758,01.135,551
2022-09-17T13:54:03,42.805,6.029,CST-1368DR,4581,5071,11785,01.126,551
2022-09-17T13:57:05,42.805,6.029,CST-1368DR,4581,5073,11787,01.125,551
2022-09-17T14:00:06,42.805,6.029,CST-1368DR,4581,5072,11786,01.126,551
2022-09-17T14:03:08,42.805,6.029,CST-1368DR,4581,5073,11789,01.125,551
2022-09-17T14:06:10,42.805,6.029,CST-1368DR,4581,5071,11783,01.127,551
2022-09-17T14:09:11,42.805,6.029,CST-1368DR,4581,5073,11789,01.125,551
2022-09-17T14:12:13,42.805,6.029,CST-1368DR,4581,5073,11789,01.125,551
2022-09-17T14:15:14,42.805,6.029,CST-1368DR,4581,5074,11790,01.124,551
2022-09-17T14:18:16,42.805,6.029,CST-1368DR,4581,5074,11791,01.124,551
2022-09-17T14:21:17,42.805,6.029,CST-1368DR,4581,5074,11790,01.124,551
2022-09-17T14:24:19,42.805,6.029,CST-1368DR,4581,5073,11789,01.125,551
2022-09-17T14:27:21,42.805,6.029,CST-1368DR,4581,5073,11789,01.125,551
2022-09-17T14:30:22,42.805,6.029,CST-1368DR,4581,5075,11793,01.123,551
2022-09-17T14:33:24,42.805,6.029,CST-1368DR,4581,5074,11790,01.124,551
2022-09-17T14:36:25,42.805,6.029,CST-1368DR,4581,5073,11789,01.125,551
2022-09-17T14:39:27,42.805,6.029,CST-1368DR,4581,5073,11787,01.125,551
2022-09-17T14:42:28,42.805,6.029,CST-1368DR,4581,5073,11788,01.125,551
2022-09-17T14:45:30,42.805,6.029,CST-1368DR,4581,5074,11791,01.124,551
2022-09-17T14:48:32,42.805,6.029,CST-1368DR,4581,5073,11789,01.125,551
2022-09-17T14:51:33,42.805,6.029,CST-1368DR,4581,5074,11791,01.124,551
2022-09-17T14:54:35,42.805,6.029,CST-1368DR,4581,5073,11789,01.125,551
2022-09-17T14:57:36,42.805,6.029,CST-1368DR,4581,5074,11790,01.124,551
2022-09-17T15:00:38,42.805,6.029,CST-1368DR,4581,5074,11790,01.124,551
2022-09-17T15:03:40,42.805,6.029,CST-1368DR,4581,5073,11789,01.125,550
2022-09-17T15:06:41,42.805,6.029,CST-1368DR,4581,5073,11789,01.125,551
2022-09-17T15:09:43,42.805,6.029,CST-1368DR,4581,5074,11791,01.124,551
2022-09-17T15:12:44,42.805,6.029,CST-1368DR,4581,5074,11791,01.124,551
2022-09-17T15:15:46,42.805,6.029,CST-1368DR,4581,5074,11790,01.124,551
2022-09-17T15:18:47,42.805,6.029,CST-1368DR,4581,5073,11787,01.125,551
2022-09-17T15:21:49,42.805,6.029,CST-1368DR,4581,5071,11784,01.126,551
2022-09-17T15:24:51,42.805,6.029,CST-1368DR,4581,5072,11786,01.126,551
2022-09-17T15:27:52,42.805,6.029,CST-1368DR,4581,5071,11785,01.126,551
2022-09-17T15:30:54,42.805,6.029,CST-1368DR,4581,5072,11785,01.126,551
2022-09-17T15:33:55,42.805,6.029,CST-1368DR,4581,5072,11786,01.126,551
2022-09-17T15:36:57,42.805,6.029,CST-1368DR,4581,5072,11787,01.125,551
2022-09-17T15:39:58,42.805,6.029,CST-1368DR,4581,5072,11786,01.126,551
2022-09-17T15:43:00,42.805,6.029,CST-1368DR,4581,5073,11787,01.125,551
2022-09-17T15:46:02,42.805,6.029,CST-1368DR,4581,5073,11788,01.125,551
2022-09-17T15:49:03,42.805,6.029,CST-1368DR,4581,5072,11786,01.126,551
2022-09-17T15:52:05,42.805,6.029,CST-1368DR,4581,5072,11786,01.126,551
2022-09-17T15:55:06,42.805,6.029,CST-1368DR,4581,5071,11785,01.126,551
2022-09-17T15:58:08,42.805,6.029,CST-1368DR,4581,5072,11787,01.125,551
2022-09-17T16:01:10,42.805,6.029,CST-1368DR,4581,5074,11791,01.124,551
2022-09-17T16:04:11,42.805,6.029,CST-1368DR,4581,5073,11787,01.125,551
2022-09-17T16:07:13,42.805,6.029,CST-1368DR,4581,5072,11786,01.126,551
2022-09-17T16:10:14,42.805,6.029,CST-1368DR,4581,5068,11777,01.129,551
2022-09-17T16:13:16,42.805,6.029,CST-1368DR,4581,5072,11786,01.126,551
2022-09-17T16:16:17,42.805,6.029,CST-1368DR,4581,5071,11784,01.126,551
2022-09-17T16:19:19,42.805,6.029,CST-1368DR,4581,5072,11785,01.126,551
2022-09-17T16:22:21,42.805,6.029,CST-1368DR,4581,5071,11783,01.127,551
2022-09-17T16:25:22,42.805,6.029,CST-1368DR,4581,5070,11782,01.127,551
2022-09-17T16:28:24,42.805,6.029,CST-1368DR,4581,5070,11780,01.128,551
2022-09-17T16:31:25,42.805,6.029,CST-1368DR,4581,5070,11782,01.127,551
2022-09-17T16:34:27,42.805,6.029,CST-1368DR,4581,5070,11780,01.128,551
2022-09-17T16:37:28,42.805,6.029,CST-1368DR,4581,5070,11780,01.128,551